Time,TemperatureF,DewpointF,PressureIn,WindDirection,WindDirectionDegrees,WindSpeedMPH,WindSpeedGustMPH,Humidity,HourlyPrecipIn,Conditions,Clouds,dailyrainin,SoftwareType,DateUTC
2013-03-06 00:02:00,25.0,22.0,29.60,East,94,0.0,-999.0,88,-99.99,,,-99.99,,2013-03-06 05:02:00,
2013-03-06 00:12:00,25.0,22.0,29.60,East,94,0.0,-999.0,88,-99.99,,,-99.99,,2013-03-06 05:12:00,
2013-03-06 00:22:00,24.0,21.0,29.60,ENE,71,0.0,-999.0,88,-99.99,,,-99.99,,2013-03-06 05:22:00,
2013-03-06 00:32:00,24.0,21.0,29.60,ESE,105,0.0,-999.0,88,-99.99,,,-99.99,,2013-03-06 05:32:00,
2013-03-06 00:42:00,24.0,21.0,29.60,ESE,105,0.0,-999.0,88,-99.99,,,-99.99,,2013-03-06 05:42:00,
2013-03-06 00:52:00,24.0,21.0,29.60,ENE,73,0.0,-999.0,88,-99.99,,,-99.99,,2013-03-06 05:52:00,
2013-03-06 01:02:00,24.0,21.0,29.60,ENE,69,0.0,-999.0,89,-99.99,,,-99.99,,2013-03-06 06:02:00,
2013-03-06 01:11:00,24.0,21.0,29.60,ENE,69,0.0,-999.0,89,-99.99,,,-99.99,,2013-03-06 06:11:00,
2013-03-06 01:22:00,24.0,21.0,29.61,East,84,0.0,-999.0,89,-99.99,,,-99.99,,2013-03-06 06:22:00,
2013-03-06 01:32:00,24.0,21.0,29.61,ENE,64,0.0,-999.0,89,-99.99,,,-99.99,,2013-03-06 06:32:00,
2013-03-06 01:42:00,24.0,21.0,29.61,ENE,64,0.0,-999.0,89,-99.99,,,-99.99,,2013-03-06 06:42:00,
2013-03-06 01:52:00,24.0,21.0,29.62,ESE,110,0.0,-999.0,89,-99.99,,,-99.99,,2013-03-06 06:52:00,
2013-03-06 02:01:00,24.0,21.0,29.62,East,81,0.0,-999.0,89,-99.99,,,-99.99,,2013-03-06 07:01:00,
2013-03-06 02:11:00,24.0,21.0,29.62,East,81,0.0,-999.0,89,-99.99,,,-99.99,,2013-03-06 07:11:00,
2013-03-06 02:22:00,24.0,21.0,29.62,ENE,71,0.0,-999.0,89,-99.99,,,-99.99,,2013-03-06 07:22:00,
2013-03-06 02:32:00,24.0,21.0,29.63,West,266,0.0,-999.0,89,-99.99,,,-99.99,,2013-03-06 07:32:00,
2013-03-06 02:42:00,24.0,21.0,29.63,West,266,0.0,-999.0,89,-99.99,,,-99.99,,2013-03-06 07:42:00,
2013-03-06 02:52:00,24.0,21.0,29.62,SW,232,0.0,-999.0,89,-99.99,,,-99.99,,2013-03-06 07:52:00,
2013-03-06 03:01:00,24.0,21.0,29.61,WSW,237,0.0,-999.0,89,-99.99,,,-99.99,,2013-03-06 08:01:00,
2013-03-06 03:11:00,24.0,21.0,29.61,WSW,237,0.0,-999.0,89,-99.99,,,-99.99,,2013-03-06 08:11:00,
2013-03-06 03:21:00,24.0,22.0,29.61,WSW,254,0.0,-999.0,90,-99.99,,,-99.99,,2013-03-06 08:21:00,
2013-03-06 03:32:00,23.0,21.0,29.60,SW,229,0.0,-999.0,92,-99.99,,,-99.99,,2013-03-06 08:32:00,
2013-03-06 03:42:00,23.0,21.0,29.60,SW,229,0.0,-999.0,92,-99.99,,,-99.99,,2013-03-06 08:42:00,
2013-03-06 03:52:00,22.0,20.0,29.59,WSW,244,0.0,-999.0,92,-99.99,,,-99.99,,2013-03-06 08:52:00,
2013-03-06 04:01:00,22.0,20.0,29.60,West,277,0.0,-999.0,91,-99.99,,,-99.99,,2013-03-06 09:01:00,
2013-03-06 04:12:00,22.0,20.0,29.60,West,277,0.0,-999.0,91,-99.99,,,-99.99,,2013-03-06 09:12:00,
2013-03-06 04:22:00,21.0,19.0,29.60,SW,232,0.0,-999.0,92,-99.99,,,-99.99,,2013-03-06 09:22:00,
2013-03-06 04:32:00,21.0,19.0,29.60,West,267,0.0,-999.0,92,-99.99,,,-99.99,,2013-03-06 09:32:00,
2013-03-06 04:42:00,21.0,19.0,29.60,West,267,0.0,-999.0,92,-99.99,,,-99.99,,2013-03-06 09:42:00,
2013-03-06 04:52:00,21.0,19.0,29.61,WSW,244,0.0,-999.0,92,-99.99,,,-99.99,,2013-03-06 09:52:00,
2013-03-06 05:01:00,20.0,18.0,29.61,WSW,255,0.0,-999.0,92,-99.99,,,-99.99,,2013-03-06 10:01:00,
2013-03-06 05:11:00,20.0,18.0,29.61,WSW,255,0.0,-999.0,92,-99.99,,,-99.99,,2013-03-06 10:11:00,
2013-03-06 05:22:00,20.0,18.0,29.61,WSW,255,0.0,-999.0,92,-99.99,,,-99.99,,2013-03-06 10:22:00,
2013-03-06 05:32:00,20.0,18.0,29.62,WNW,302,0.0,-999.0,92,-99.99,,,-99.99,,2013-03-06 10:32:00,
2013-03-06 05:42:00,20.0,18.0,29.62,WNW,302,0.0,-999.0,92,-99.99,,,-99.99,,2013-03-06 10:42:00,
2013-03-06 05:52:00,20.0,18.0,29.62,WNW,283,0.0,-999.0,93,-99.99,,,-99.99,,2013-03-06 10:52:00,
2013-03-06 06:02:00,19.0,17.0,29.63,WSW,242,0.0,-999.0,93,-99.99,,,-99.99,,2013-03-06 11:02:00,
2013-03-06 06:11:00,19.0,17.0,29.63,WSW,242,0.0,-999.0,93,-99.99,,,-99.99,,2013-03-06 11:11:00,
2013-03-06 06:22:00,19.0,17.0,29.63,West,274,0.0,-999.0,93,-99.99,,,-99.99,,2013-03-06 11:22:00,
2013-03-06 06:32:00,18.0,16.0,29.65,WSW,254,0.0,-999.0,93,-99.99,,,-99.99,,2013-03-06 11:32:00,
2013-03-06 06:42:00,18.0,16.0,29.65,WSW,254,0.0,-999.0,93,-99.99,,,-99.99,,2013-03-06 11:42:00,
2013-03-06 06:52:00,18.0,16.0,29.65,WNW,300,0.0,-999.0,93,-99.99,,,-99.99,,2013-03-06 11:52:00,
2013-03-06 07:02:00,18.0,16.0,29.65,WSW,254,0.0,-999.0,93,-99.99,,,-99.99,,2013-03-06 12:02:00,
2013-03-06 07:12:00,18.0,16.0,29.65,WSW,254,0.0,-999.0,93,-99.99,,,-99.99,,2013-03-06 12:12:00,
2013-03-06 07:22:00,18.0,16.0,29.65,SW,229,0.0,-999.0,93,-99.99,,,-99.99,,2013-03-06 12:22:00,
2013-03-06 07:33:00,18.0,16.0,29.66,WSW,242,0.0,-999.0,93,-99.99,,,-99.99,,2013-03-06 12:33:00,
2013-03-06 07:42:00,18.0,16.0,29.66,WSW,242,0.0,-999.0,93,-99.99,,,-99.99,,2013-03-06 12:42:00,
2013-03-06 07:53:00,17.0,15.0,29.67,WSW,252,0.0,-999.0,93,-99.99,,,-99.99,,2013-03-06 12:53:00,
2013-03-06 08:02:00,17.0,15.0,29.68,SW,235,0.0,-999.0,93,-99.99,,,-99.99,,2013-03-06 13:02:00,
2013-03-06 08:12:00,17.0,15.0,29.68,SW,235,0.0,-999.0,93,-99.99,,,-99.99,,2013-03-06 13:12:00,
2013-03-06 08:22:00,17.0,15.0,29.69,WSW,249,0.0,-999.0,93,-99.99,,,-99.99,,2013-03-06 13:22:00,
2013-03-06 08:32:00,18.0,16.0,29.70,WNW,286,0.0,-999.0,93,-99.99,,,-99.99,,2013-03-06 13:32:00,
2013-03-06 08:42:00,18.0,16.0,29.70,WNW,286,0.0,-999.0,93,-99.99,,,-99.99,,2013-03-06 13:42:00,
2013-03-06 08:52:00,18.0,16.0,29.71,WSW,254,0.0,-999.0,93,-99.99,,,-99.99,,2013-03-06 13:52:00,
2013-03-06 09:02:00,18.0,16.0,29.72,NNW,328,0.0,-999.0,93,-99.99,,,-99.99,,2013-03-06 14:02:00,
2013-03-06 09:11:00,18.0,16.0,29.72,NNW,328,0.0,-999.0,93,-99.99,,,-99.99,,2013-03-06 14:11:00,
2013-03-06 09:22:00,18.0,16.0,29.73,WSW,251,0.0,-999.0,93,-99.99,,,-99.99,,2013-03-06 14:22:00,
2013-03-06 09:32:00,18.0,16.0,29.74,WNW,293,0.0,-999.0,93,-99.99,,,-99.99,,2013-03-06 14:32:00,
2013-03-06 09:42:00,18.0,16.0,29.74,WNW,293,0.0,-999.0,93,-99.99,,,-99.99,,2013-03-06 14:42:00,
2013-03-06 09:53:00,18.0,16.0,29.75,SW,236,0.0,-999.0,93,-99.99,,,-99.99,,2013-03-06 14:53:00,
2013-03-06 10:02:00,18.0,16.0,29.76,WSW,250,0.0,-999.0,93,-99.99,,,-99.99,,2013-03-06 15:02:00,
2013-03-06 10:12:00,18.0,16.0,29.76,WSW,250,0.0,-999.0,93,-99.99,,,-99.99,,2013-03-06 15:12:00,
2013-03-06 10:22:00,18.0,16.0,29.76,WSW,252,0.0,-999.0,93,-99.99,,,-99.99,,2013-03-06 15:22:00,
2013-03-06 10:32:00,20.0,19.0,29.77,SSE,153,1.0,-999.0,94,-99.99,,,-99.99,,2013-03-06 15:32:00,
2013-03-06 10:42:00,20.0,19.0,29.77,SSE,153,1.0,-999.0,94,-99.99,,,-99.99,,2013-03-06 15:42:00,
2013-03-06 10:52:00,20.0,19.0,29.79,East,88,1.0,-999.0,94,-99.99,,,-99.99,,2013-03-06 15:52:00,
2013-03-06 11:02:00,20.0,19.0,29.80,ESE,112,1.0,-999.0,94,-99.99,,,-99.99,,2013-03-06 16:02:00,
2013-03-06 11:12:00,20.0,19.0,29.80,ESE,112,1.0,-999.0,94,-99.99,,,-99.99,,2013-03-06 16:12:00,
2013-03-06 11:21:00,20.0,19.0,29.80,ESE,105,1.0,-999.0,94,-99.99,,,-99.99,,2013-03-06 16:21:00,
2013-03-06 11:32:00,20.0,19.0,29.81,SW,222,1.0,-999.0,94,-99.99,,,-99.99,,2013-03-06 16:32:00,
2013-03-06 11:42:00,20.0,19.0,29.81,SW,222,1.0,-999.0,94,-99.99,,,-99.99,,2013-03-06 16:42:00,
2013-03-06 11:52:00,20.0,19.0,29.81,SW,222,1.0,-999.0,94,-99.99,,,-99.99,,2013-03-06 16:52:00,
2013-03-06 12:01:00,20.0,19.0,29.84,South,178,1.0,-999.0,95,-99.99,,,-99.99,,2013-03-06 17:01:00,
2013-03-06 12:11:00,20.0,19.0,29.84,South,178,1.0,-999.0,95,-99.99,,,-99.99,,2013-03-06 17:11:00,
2013-03-06 12:22:00,19.0,17.0,29.85,NNW,328,0.0,-999.0,93,-99.99,,,-99.99,,2013-03-06 17:22:00,
2013-03-06 12:32:00,19.0,17.0,29.86,NW,321,0.0,-999.0,93,-99.99,,,-99.99,,2013-03-06 17:32:00,
2013-03-06 12:42:00,19.0,17.0,29.86,NW,321,0.0,-999.0,93,-99.99,,,-99.99,,2013-03-06 17:42:00,
2013-03-06 12:53:00,19.0,17.0,29.87,West,271,0.0,-999.0,93,-99.99,,,-99.99,,2013-03-06 17:53:00,
2013-03-06 13:02:00,20.0,18.0,29.87,SW,229,0.0,-999.0,93,-99.99,,,-99.99,,2013-03-06 18:02:00,
2013-03-06 13:29:00,20.0,18.0,29.88,West,272,0.0,-999.0,93,-99.99,,,-99.99,,2013-03-06 18:29:00,
2013-03-06 13:42:00,20.0,18.0,29.88,WSW,254,0.0,-999.0,93,-99.99,,,-99.99,,2013-03-06 18:42:00,
2013-03-06 13:53:00,20.0,18.0,29.89,WSW,243,0.0,-999.0,93,-99.99,,,-99.99,,2013-03-06 18:53:00,
2013-03-06 14:02:00,20.0,18.0,29.89,West,263,0.0,-999.0,93,-99.99,,,-99.99,,2013-03-06 19:02:00,
2013-03-06 14:11:00,20.0,18.0,29.89,West,263,0.0,-999.0,93,-99.99,,,-99.99,,2013-03-06 19:11:00,
2013-03-06 14:22:00,20.0,18.0,29.90,WSW,249,0.0,-999.0,93,-99.99,,,-99.99,,2013-03-06 19:22:00,
2013-03-06 14:32:00,20.0,18.0,29.91,West,259,0.0,-999.0,92,-99.99,,,-99.99,,2013-03-06 19:32:00,
2013-03-06 14:43:00,20.0,18.0,29.91,West,259,0.0,-999.0,92,-99.99,,,-99.99,,2013-03-06 19:43:00,
2013-03-06 14:53:00,20.0,18.0,29.92,West,272,0.0,-999.0,92,-99.99,,,-99.99,,2013-03-06 19:53:00,
2013-03-06 15:02:00,20.0,18.0,29.93,WSW,251,0.0,-999.0,92,-99.99,,,-99.99,,2013-03-06 20:02:00,
2013-03-06 15:12:00,20.0,18.0,29.93,WSW,251,0.0,-999.0,92,-99.99,,,-99.99,,2013-03-06 20:12:00,
2013-03-06 15:22:00,20.0,18.0,29.94,West,267,0.0,-999.0,92,-99.99,,,-99.99,,2013-03-06 20:22:00,
2013-03-06 15:32:00,21.0,19.0,29.95,NW,326,0.0,-999.0,92,-99.99,,,-99.99,,2013-03-06 20:32:00,
2013-03-06 15:42:00,21.0,19.0,29.95,NW,326,0.0,-999.0,92,-99.99,,,-99.99,,2013-03-06 20:42:00,
2013-03-06 15:53:00,21.0,19.0,29.96,WNW,293,0.0,-999.0,92,-99.99,,,-99.99,,2013-03-06 20:53:00,
2013-03-06 16:02:00,21.0,19.0,29.97,WSW,244,0.0,-999.0,92,-99.99,,,-99.99,,2013-03-06 21:02:00,
2013-03-06 16:12:00,21.0,19.0,29.97,WSW,244,0.0,-999.0,92,-99.99,,,-99.99,,2013-03-06 21:12:00,
2013-03-06 16:22:00,21.0,19.0,29.98,SW,232,0.0,-999.0,92,-99.99,,,-99.99,,2013-03-06 21:22:00,
2013-03-06 16:32:00,21.0,19.0,30.00,WSW,256,0.0,-999.0,92,-99.99,,,-99.99,,2013-03-06 21:32:00,
2013-03-06 16:42:00,21.0,19.0,30.00,WSW,256,0.0,-999.0,92,-99.99,,,-99.99,,2013-03-06 21:42:00,
2013-03-06 16:51:00,21.0,19.0,30.02,NW,316,0.0,-999.0,92,-99.99,,,-99.99,,2013-03-06 21:51:00,
2013-03-06 17:02:00,21.0,19.0,30.01,NW,312,0.0,-999.0,92,-99.99,,,-99.99,,2013-03-06 22:02:00,
2013-03-06 17:11:00,21.0,19.0,30.01,NW,312,0.0,-999.0,92,-99.99,,,-99.99,,2013-03-06 22:11:00,
2013-03-06 17:22:00,21.0,19.0,30.02,North,349,0.0,-999.0,92,-99.99,,,-99.99,,2013-03-06 22:22:00,
2013-03-06 17:32:00,21.0,19.0,30.04,SW,229,0.0,-999.0,92,-99.99,,,-99.99,,2013-03-06 22:32:00,
2013-03-06 17:42:00,21.0,19.0,30.04,SW,229,0.0,-999.0,92,-99.99,,,-99.99,,2013-03-06 22:42:00,
2013-03-06 17:51:00,21.0,19.0,30.04,SW,229,0.0,-999.0,92,-99.99,,,-99.99,,2013-03-06 22:51:00,
2013-03-06 18:01:00,21.0,19.0,30.05,SW,227,0.0,-999.0,92,-99.99,,,-99.99,,2013-03-06 23:01:00,
2013-03-06 18:11:00,21.0,19.0,30.05,SW,227,0.0,-999.0,92,-99.99,,,-99.99,,2013-03-06 23:11:00,
2013-03-06 18:21:00,21.0,19.0,30.05,WSW,251,0.0,-999.0,92,-99.99,,,-99.99,,2013-03-06 23:21:00,
2013-03-06 18:32:00,21.0,19.0,30.05,WSW,258,0.0,-999.0,92,-99.99,,,-99.99,,2013-03-06 23:32:00,
2013-03-06 18:42:00,21.0,19.0,30.05,WSW,258,0.0,-999.0,92,-99.99,,,-99.99,,2013-03-06 23:42:00,
2013-03-06 18:52:00,22.0,20.0,30.06,West,279,0.0,-999.0,92,-99.99,,,-99.99,,2013-03-06 23:52:00,
2013-03-06 19:02:00,22.0,20.0,30.07,NW,322,0.0,-999.0,92,-99.99,,,-99.99,,2013-03-07 00:02:00,
2013-03-06 19:11:00,22.0,20.0,30.07,NW,322,0.0,-999.0,92,-99.99,,,-99.99,,2013-03-07 00:11:00,
2013-03-06 19:22:00,22.0,20.0,30.08,WNW,288,0.0,-999.0,92,-99.99,,,-99.99,,2013-03-07 00:22:00,
2013-03-06 19:32:00,22.0,20.0,30.08,NNW,334,0.0,-999.0,92,-99.99,,,-99.99,,2013-03-07 00:32:00,
2013-03-06 19:42:00,22.0,20.0,30.08,NNW,334,0.0,-999.0,92,-99.99,,,-99.99,,2013-03-07 00:42:00,
2013-03-06 19:52:00,22.0,20.0,30.09,West,260,0.0,-999.0,92,-99.99,,,-99.99,,2013-03-07 00:52:00,
2013-03-06 20:02:00,22.0,20.0,30.08,NNW,329,0.0,-999.0,92,-99.99,,,-99.99,,2013-03-07 01:02:00,
2013-03-06 20:12:00,22.0,20.0,30.08,NNW,329,0.0,-999.0,92,-99.99,,,-99.99,,2013-03-07 01:12:00,
2013-03-06 20:21:00,22.0,20.0,30.09,West,263,0.0,-999.0,92,-99.99,,,-99.99,,2013-03-07 01:21:00,
2013-03-06 20:32:00,22.0,20.0,30.09,West,267,0.0,-999.0,92,-99.99,,,-99.99,,2013-03-07 01:32:00,
2013-03-06 20:42:00,22.0,20.0,30.09,West,267,0.0,-999.0,92,-99.99,,,-99.99,,2013-03-07 01:42:00,
2013-03-06 20:52:00,22.0,20.0,30.10,NNE,26,0.0,-999.0,91,-99.99,,,-99.99,,2013-03-07 01:52:00,
2013-03-06 21:01:00,22.0,20.0,30.11,West,279,0.0,-999.0,91,-99.99,,,-99.99,,2013-03-07 02:01:00,
2013-03-06 21:11:00,22.0,20.0,30.11,West,279,0.0,-999.0,91,-99.99,,,-99.99,,2013-03-07 02:11:00,
2013-03-06 21:21:00,22.0,20.0,30.11,West,279,0.0,-999.0,91,-99.99,,,-99.99,,2013-03-07 02:21:00,
2013-03-06 21:32:00,22.0,20.0,30.11,West,265,0.0,-999.0,92,-99.99,,,-99.99,,2013-03-07 02:32:00,
2013-03-06 21:42:00,22.0,20.0,30.11,West,265,0.0,-999.0,92,-99.99,,,-99.99,,2013-03-07 02:42:00,
2013-03-06 21:51:00,22.0,20.0,30.11,West,265,0.0,-999.0,92,-99.99,,,-99.99,,2013-03-07 02:51:00,
2013-03-06 22:02:00,22.0,20.0,30.12,SW,236,0.0,-999.0,92,-99.99,,,-99.99,,2013-03-07 03:02:00,
2013-03-06 22:12:00,22.0,20.0,30.12,SW,236,0.0,-999.0,92,-99.99,,,-99.99,,2013-03-07 03:12:00,
2013-03-06 22:22:00,22.0,20.0,30.13,WSW,251,0.0,-999.0,92,-99.99,,,-99.99,,2013-03-07 03:22:00,
2013-03-06 22:32:00,22.0,20.0,30.13,West,262,0.0,-999.0,92,-99.99,,,-99.99,,2013-03-07 03:32:00,
2013-03-06 22:42:00,22.0,20.0,30.13,West,262,0.0,-999.0,92,-99.99,,,-99.99,,2013-03-07 03:42:00,
2013-03-06 22:52:00,22.0,20.0,30.14,North,9,0.0,-999.0,92,-99.99,,,-99.99,,2013-03-07 03:52:00,
2013-03-06 23:02:00,22.0,20.0,30.13,SW,214,0.0,-999.0,92,-99.99,,,-99.99,,2013-03-07 04:02:00,
2013-03-06 23:12:00,22.0,20.0,30.13,SW,214,0.0,-999.0,92,-99.99,,,-99.99,,2013-03-07 04:12:00,
2013-03-06 23:22:00,22.0,20.0,30.13,SW,214,0.0,-999.0,92,-99.99,,,-99.99,,2013-03-07 04:22:00,
2013-03-06 23:32:00,22.0,20.0,30.13,NW,321,0.0,-999.0,92,-99.99,,,-99.99,,2013-03-07 04:32:00,
2013-03-06 23:42:00,22.0,20.0,30.13,NW,321,0.0,-999.0,92,-99.99,,,-99.99,,2013-03-07 04:42:00,
2013-03-06 23:52:00,22.0,20.0,30.13,WSW,252,0.0,-999.0,92,-99.99,,,-99.99,,2013-03-07 04:52:00,